User: anonymous   Login
Location: Unspecified
(0.0000°N, 0.0000°E)
Time: 06:15:16
(UTC+00:00)
Language:

Hamsat - Orbit

View from above orbital plane
View from above orbital plane
View from above satellite
View from above satellite

Ground track
Ground track

The orbit data is extracted from the following two-line orbital elements,

1 28650U 05017B   19077.88058833  .00000191  00000-0  25986-4 0  9996
2 28650  97.7387  44.0659 0023537 170.9296 189.2351 14.89086346751355
Epoch (UTC): 18 March 2019 21:08:02
Eccentricity: 0.0023537
inclination: 97.7387°
perigee height: 584 km
apogee height: 617 km
right ascension of ascending node: 44.0659°
argument of perigee: 170.9296°
revolutions per day: 14.89086346
mean anomaly at epoch: 189.2351°
orbit number at epoch: 75135

The dashed part of the orbit path shows where the satellite is in the earth's shadow,  

DLR